www.pogodaiklimat.ru

Погода и климат >> Архив погоды >> Россия >> Самарская область >> Самара


АРХИВ ПОГОДЫ в Самаре

Время (UTC), дата Ветер
(напр.,м/с)
 
Видим.   Явления Облачность Т
(С)
Тd
(С)
f
(%)
Тe
(С)
Тes
(С)
Комфортность P
(гПа)
Po
(гПа)
Тmin
(С)
Tmax
(С)
R
(мм)
S
(см)
18 20.03 В 3 10 км 10/0
[Ci fib]
-4.3 -7.3 80 -10 -10 1020.7 1002.8
21 20.03 В 3 10 км 10/0
[Ci fib]
-4.4 -7.7 78 -10 -10 1019.9 1002.0
00 21.03 В 4 10 км 5/0
[Ci fib]
-5.2 -8.3 79 -12 -12 1019.5 1001.6
03 21.03 В 4 10 км 8/0
[Ci fib]
-6.1 -9.2 79 -13 -12 1019.6 1001.6 -6.1 57
06 21.03 В 3 10 км 10/0
[Ci fib]
-4.5 -9.5 68 -10 -6 1020.3 1002.4 -6.1
09 21.03 В 4 10 км 8/0
[Ci fib]
-0.7 -8.8 54 -6 -1 1019.9 1002.2
12 21.03 В 4 10 км 5/0
[Ci fib]
+2.1 -7.8 48 -2 0 1019.5 1002.0
15 21.03 В 3 10 км 4/0
[Ci fib]
+1.2 -6.1 58 -3 -3 1020.2 1002.6 +2.7
18 21.03 В 3 10 км ясно -0.4 -9.1 52 -4 -4 1021.0 1003.4
21 21.03 В 4 10 км ясно -0.5 -10.0 49 -5 -5 1021.5 1003.8
00 22.03 В 4 10 км 3/0
[Ci fib]
-2.2 -10.5 53 -8 -8 1021.4 1003.6
03 22.03 В 4 10 км 4/0
[Ci fib]
-3.0 -10.9 54 -8 -8 1022.2 1004.4 -3.2 57
06 22.03 В 4
{10}
10 км 5/0
[Ci fib]
-0.9 -10.5 48 -6 -3 1022.8 1005.1
09 22.03 В 4 10 км 6/0
[Ci fib]
+1.6 -10.1 41 -3 +2 1022.5 1005.0
12 22.03 В 4 10 км 4/0
[Ci fib]
+2.3 -8.9 43 -2 +1 1022.2 1004.7
15 22.03 В 1 10 км 5/0
[Ci fib]
+0.7 -7.3 55 -1 -1 1023.4 1005.8 +2.6
18 22.03 В 3 10 км 8/0
[Ci fib]
-0.4 -6.3 64 -5 -5 1023.8 1006.1
21 22.03 В 2 10 км 8/0
[Ac trans]
-1.5 -4.9 78 -5 -5 1024.2 1006.4
00 23.03 ЮВ 2 10 км 8/0
[Ac trans]
-2.1 -4.2 86 -6 -6 1024.0 1006.2
03 23.03 ЮВ 2 10 км 10/0
[Ac trans]
-2.2 -3.9 88 -6 -6 1024.4 1006.6 -2.3 57
06 23.03 ЮВ 1 4000 м в посл. час переохл. осадки {морось} 10/10 200 м
[St]
-1.7 -2.0 98 -4 -4 1024.5 1006.7
09 23.03 Ю 1 10 км дымка {морось} 10/6 600 м
[Sc diur, vesp Ac trans]
+0.3 -2.0 85 -2 0 1024.1 1006.4
12 23.03 Ю 1 10 км {морось} 10/8 600 м
[Sc diur, vesp Ac trans]
+1.3 -1.1 84 -1 -0 1023.3 1005.7
15 23.03 ЮЗ 2 10 км {снег} 10/8 600 м
[Sc Ac trans]
+0.3 -1.3 89 -3 -3 1022.7 1005.1 +1.6 0.0
18 23.03 З 2 10 км {снег} 10/8 600 м
[Sc Ac trans]
+0.2 -0.3 96 -4 -4 1022.9 1005.2
21 23.03 З 2 10 км 10/5 600 м
[Sc Ac trans]
+0.2 -0.1 98 -4 -4 1022.5 1004.9
00 24.03 З 1 2000 м дымка 10/10 600 м
[Sc]
+0.1 +0.1 100 -2 -2 1022.2 1004.5
03 24.03 З 1 4000 м в посл. час туман {снег} 10/10 300 м
[St]
+0.3 +0.3 100 -2 -2 1023.1 1005.5 0.0 0.3 56
06 24.03 СЗ 1 10 км {снег} 8/8 600 м
[Sc diur, vesp]
+2.4 -1.3 77 +1 +2 1023.8 1006.3
09 24.03 З 2 10 км 8/0
[Ci fib]
+4.9 -1.3 64 +3 +10 1023.3 1005.9
12 24.03 З 3 10 км 6/0
[Ci fib]
+5.2 -0.8 65 +2 +5 1022.8 1005.4
15 24.03 ЮЗ 1 10 км 5/0
[Ci fib]
+4.2 -0.6 71 +3 +3 1021.9 1004.5 +5.8
18 24.03 ЮЗ 1 10 км 5/0
[Ci fib]
+1.9 -2.0 75 0 0 1021.1 1003.6
21 24.03 В 2 10 км 10/0
[Ci fib]
+0.5 -2.0 83 -3 -3 1017.6 1000.1
00 25.03 В 4-11
{11}
1000 м снег 10/10 300 м
[Frnb Ns]
-1.3 -1.3 100 -7 -7 1014.5 996.9
03 25.03 Ю 3-11
{12}
4000 м слабый снег 10/10 300 м
[Frnb Ns]
+1.1 +1.1 100 -4 -4 1009.4 992.0 -1.7 5 53
06 25.03 Ю 4-10
{12}
10 км слабый дождь {снег} 10/10 300 м
[Frnb Ns]
+1.8 +1.8 100 -4 -4 1006.1 988.9
09 25.03 Ю 3
{11}
10 км дождь 10/10 300 м
[Frnb Ns]
+2.3 +2.3 100 -2 -2 1003.7 986.6
12 25.03 ЮЗ 3 10 км дождь 10/10 300 м
[Frnb Ns]
+2.8 +2.8 100 -2 -2 1002.6 985.5
15 25.03 З 2 10 км {дождь} 10/8 600 м
[Sc Ac trans]
+2.1 +1.2 94 -1 -1 1004.2 987.0 +3.0 13
18 25.03 З 2 10 км {дождь} 6/0
[Ac trans]
+0.5 -2.2 82 -3 -3 1006.2 988.9
21 25.03 З 3 10 км 8/0
[Ac trans]
-0.5 -3.7 79 -5 -5 1007.9 990.4
00 26.03 З 3 10 км ясно -2.4 -4.9 83 -7 -7 1009.7 992.1
03 26.03 З 2 10 км ясно -3.3 -5.2 87 -7 -7 1010.7 993.1 -3.3 48
06 26.03 З 3 10 км 5/3 300 м
[Sc Ac trans]
-0.5 -4.1 77 -5 -2 1011.9 994.4
09 26.03 ЮЗ 3 10 км 5/4 300 м
[Sc Ci fib]
+1.1 -4.4 67 -3 +2 1012.3 994.9
12 26.03 З 3 10 км 10/6 600 м
[Sc Ac und]
+1.7 -4.0 66 -2 -2 1012.0 994.6
15 26.03 З 2 10 км 8/3 600 м
[Sc Ac trans Ci fib]
+1.4 -3.8 68 -2 -2 1011.6 994.2 +2.4
18 26.03 З 2 10 км 8/0
[Ac trans Ci fib]
+1.2 -2.7 75 -2 -2 1011.9 994.5
21 26.03 З 2 10 км 5/0
[Ci fib]
0.0 -3.1 80 -4 -4 1010.5 993.0
00 27.03 ЮЗ 2 10 км 8/0
[Ac trans Ci fib]
-0.8 -3.5 82 -4 -4 1008.6 991.1
03 27.03 ЮЗ 1 10 км 10/0
[Ac trans Ci fib]
-0.7 -4.1 78 -3 -3 1006.6 989.2 -0.9 48
06 27.03 ЮЗ 2 10 км 8/0
[Ac trans]
+1.7 -4.2 65 -1 +2 1005.0 987.8
09 27.03 ЮЗ 2 10 км 9/3 600 м
[Sc diur, vesp Ac trans]
+3.4 -3.4 61 +1 +4 1003.7 986.5
12 27.03 Ю 3
{11}
10 км 8/0
[Ac trans Ci fib]
+3.4 -3.5 61 0 +2 1002.1 985.0
15 27.03 ЮВ 2 10 км 10/0
[Ac trans]
+1.6 -2.0 77 -2 -2 1000.9 983.7 +3.9

 

Местоположение метеостанции Самара (Самарская область, Россия): широта 53.25 долгота 50.22 высота над уровнем моря 139 м.

В архиве по умолчанию представлена погода в Самаре за последнюю неделю. Архивные данные за месяц целиком и за предыдущие месяцы, начиная с января 2011 года, Вы можете получить, выбрав интересующий диапазон дат из раскрывающегося списка и нажав кнопку "Ввод!".

Внимание! Время в таблицах - всемирное. Для получения местного времени необходимо прибавить поправку, которая в Самаре равна 4 ч.

Смотрите также архив погоды в соседних городах и на ближайших метеорологических станциях:

Погода в Самаре-Центр (Самарская область, Россия) (8 км)
Погода в Курумоче (Самарская область, Россия) (28 км)
Погода в Аглосе (Самарская область, Россия) (32 км)
Погода в Безенчуке (Самарская область, Россия) (61 км)
Погода в Тольятти (Самарская область, Россия) (69 км)
Погода в Кинель-Черкассах (Самарская область, Россия) (94 км)
Погода в Большая Глушица (Самарская область, Россия) (98 км)
Погода в Авангарде Зерносовхозе (Самарская область, Россия) (100 км)
Погода в Новодевичьем (Самарская область, Россия) (100 км)
Погода в Серноводске (Самарская область, Россия) (102 км)

Пояснения к столбцам:

Ветер - указаны скорость ветра в м/с - средняя за 10 мин, порывы в срок и между сроками (в фигурных скобках) и направление, откуда дует ветер: С - северный, СВ - северо-восточный, В - восточный, ЮВ - юго-восточный, Ю - южный, ЮЗ - юго-западный, З - западный, СЗ - северо-западный.
Видимость - горизонтальная дальность видимости в метрах или километрах. При видимости от 1 до 10 км при отсутствии осадков обычно наблюдается дымка, при ухудшении видимости до 1 км и менее - туман. В сухую погоду видимость может ухудшаться дымом, пылью или мглою.
Явления - указаны атмосферные явления, наблюдавшиеся в срок или в последний час перед сроком; фигурными скобками обозначены явления, наблюдавшиеся между сроками (за 1-3 часа до срока); квадратными скобками обозначены град или гололедные отложения с указанием их диаметра в мм.
Облачность - указаны через наклонную черту общая и нижняя облачность в баллах и высота нижней границы облаков в метрах; квадратными скобками обозначены формы облаков: Ci - перистые, Cs - перисто-слоистые, Cc - перисто-кучевые, Ac - высококучевые, As - высокослоистые, Sc - слоисто-кучевые, Ns - слоисто-дождевые, Cu - кучевые, Cb - кучево-дождевые. Подробнее классификацию облаков см. в Атласе облаков (PDF).
T - Температура воздуха - температура, измеренная на высоте 2 м над землей.
Td - Температура точки росы - температура, при понижении до которой содержащийся в воздухе водяной пар достигнет насыщения.
f - Относительная влажность воздуха - влажноcть воздуха, измеренная на высоте 2 м над землей.
Te - Эффективная температура - температура, которую ощущает одетый по сезону человек в тени. Характеристика душности погоды. При расчете учитывается влияние влажности воздуха и скорости ветра на теплоощущения человека.
Tes - Эффективная температура на солнце - температура, которую ощущает человек, с поправкой на солнечный нагрев. Характеристика знойности погоды. Зависит от высоты солнца над горизонтом, облачности и скорости ветра. Ночью, в пасмурную погоду, а также при ветре 12 м/с и более поправка равна нулю.
P - Атмосферное давление - приведенное к уровню моря атмосферное давление.
Po - Атмосферное давление - измеренное на уровне метеостанции атмосферное давление.
Tmin - Минимальная температура - минимум температуры воздуха на высоте 2 м над землей.
Tmax - Максимальная температура - максимум температуры воздуха на высоте 2 м над землей.
R - Количество осадков - Количество выпавших осадков, мм. При наведении курсора мыши на число - период времени, за который выпало указанное количество осадков.
S - Снежный покров - Высота снежного покрова, см. При наведении курсора мыши на число - состояние снежного покрова и степень покрытия местности в баллах.